• Join FlightAware (Why Join?)
  • Login
  • US Flag 
01:59AM EST


 

Airport Tracker/Info


-or-


 

Live Flight TrackerFlight Track Log ✈ SWA267 ✈ 17-Apr-2013 ✈ KBWI - KMHT

Flight Track Log - Related Links

Times and Time Zones

All times are in EDT time to prevent confusion due to time zone crossing. See the SWA267 flight status page for this flight to view local times or setup timezone preferences in your user account.

Time Position Orientation Groundspeed Altitude Reporting Facility
EDT Latitude Longitude Course Direction KTS MPH feet Rate Location/Type
02:07PM 39.1667 -76.7167 201° Southwest 176 203 1,900  Level Potomac TRACON
02:08PM 39.1333 -76.7333 201° Southwest 226 260 4,800 2,750 Climbing Potomac TRACON
02:09PM 39.1167 -76.6500 104° East 290 334 7,400 2,576 Climbing Potomac TRACON
02:11PM 39.1292 -76.4611 85° East 316 364 12,100 2,894 Climbing Washington Center
02:12PM 39.1444 -76.3331 81° East 335 386 15,600 3,300 Climbing Washington Center
02:13PM 39.1556 -76.1992 84° East 355 409 18,700 3,000 Climbing Washington Center
02:14PM 39.1708 -76.0600 82° East 378 435 21,600 2,600 Climbing Washington Center
02:15PM 39.1900 -75.9103 81° East 399 459 23,900 2,300 Climbing Washington Center
02:16PM 39.2569 -75.7925 54° Northeast 399 459 26,200 2,150 Climbing Washington Center
02:17PM 39.3425 -75.6856 44° Northeast 393 452 28,200 1,700 Climbing Washington Center
02:18PM 39.4303 -75.5756 44° Northeast 414 476 29,600 1,450 Climbing Washington Center
02:19PM 39.5197 -75.4544 46° Northeast 434 499 31,100 1,700 Climbing Washington Center
02:20PM 39.6111 -75.3383 44° Northeast 445 512 33,000 1,750 Climbing Washington Center
02:21PM 39.7006 -75.2167 46° Northeast 456 525 34,600 2,000 Climbing Washington Center
02:22PM 39.7958 -75.0756 49° Northeast 473 544 37,000 724 Climbing Washington Center
02:24PM 39.9817 -74.8128 47° Northeast 457 526 37,000  Level New York Center
02:25PM 40.0797 -74.6883 44° Northeast 443 510 37,000  Level New York Center
02:26PM 40.1811 -74.6506 16° North 413 475 37,000  Level New York Center
02:27PM 40.3053 -74.6083 15° North 408 470 37,000  Level New York Center
02:29PM 40.4944 -74.5494 13° North 407 468 37,000  Level Boston Center
02:30PM 40.5869 -74.5197 14° North 407 468 37,000  Level Boston Center
02:31PM 40.7231 -74.4747 14° North 417 480 37,000  Level Boston Center
02:32PM 40.8342 -74.4372 14° North 411 473 37,000  Level Boston Center
02:33PM 40.9453 -74.4019 13° North 411 473 37,000  Level Boston Center
02:34PM 41.0500 -74.3722 12° North 418 481 37,000  Level Boston Center
02:35PM 41.1611 -74.3369 13° North 411 473 37,000  Level Boston Center
02:36PM 41.2847 -74.2936 15° North 411 473 37,000  Level Boston Center
02:37PM 41.3936 -74.2581 14° North 411 473 37,000  Level Boston Center
02:38PM 41.5069 -74.2197 14° North 411 473 37,000 -347 Level Boston Center
02:39PM 41.6117 -74.1867 13° North 416 479 36,300 -836 Descending Boston Center
02:40PM 41.7206 -74.1533 13° North 411 473 35,300 -942 Descending Boston Center
02:41PM 41.8272 -74.1200 13° North 403 464 34,400 -908 Descending Boston Center
02:42PM 41.9342 -74.0811 15° North 396 456 33,500 -958 Descending Boston Center
02:43PM 42.0408 -74.0475 13° North 391 450 32,500 -992 Descending Boston Center
02:44PM 42.1239 -73.9319 46° Northeast 396 456 31,500 -942 Descending Boston Center
02:45PM 42.1883 -73.7739 61° Northeast 414 476 30,600 -1,160 Descending Boston Center
02:46PM 42.2547 -73.6125 61° Northeast 456 525 29,200 -1,700 Descending Boston Center
02:47PM 42.3167 -73.4622 61° Northeast 463 533 27,200 -1,983 Descending Boston Center
02:48PM 42.3783 -73.3114 61° Northeast 449 517 25,200 -1,780 Descending Boston Center
02:49PM 42.4442 -73.1519 61° Northeast 450 518 23,700 -1,261 Descending Boston Center
02:50PM 42.5031 -73.0117 60° Northeast 437 503 22,700 -984 Descending Boston Center
02:51PM 42.5558 -72.8769 62° Northeast 423 487 21,700 -1,140 Descending Boston Center
02:52PM 42.6125 -72.7392 61° Northeast 410 472 20,400 -1,700 Descending Boston Center
02:53PM 42.6669 -72.6122 60° Northeast 404 465 18,300 -2,085 Descending Boston Center
02:54PM 42.7108 -72.4769 66° East 397 457 16,300 -2,136 Descending Boston Center
02:55PM 42.7400 -72.3328 75° East 392 451 14,100 -2,182 Descending Boston Center
02:56PM 42.7669 -72.1911 75° East 385 443 11,900 -1,869 Descending Boston Center
02:57PM 42.7936 -72.0667 74° East 380 437 10,300 -1,289 Descending Boston Center
02:58PM 42.8203 -71.9333 75° East 347 399 9,300 -1,220 Descending Boston Center
02:59PM 42.8156 -71.8286 93° East 308 354 7,900 -1,563 Descending Boston Center
03:00PM 42.8044 -71.7072 97° East 299 344 6,200 -1,567 Descending Boston Center
03:01PM 42.7975 -71.6167 96° East 280 322 4,400 -1,075 Descending Boston Center
03:02PM 42.7864 -71.5036 98° East 260 299 3,800 -555 Descending Boston Center
03:03PM 42.7981 -71.4158 80° East 214 246 3,300 -661 Descending Boston Center
03:04PM 42.8333 -71.3925 26° Northeast 161 185 2,500 -984 Descending Boston Center
03:05PM 42.8708 -71.3975 354° North 119 137 1,300 -908 Descending Boston Center
03:06PM 42.9022 -71.4169 336° Northwest 131 151 700 -513 Descending Boston Center
03:07PM 42.9336 -71.4361 336° Northwest 131 151 300 9,074 Descending Boston Center
03:08PM 42.9650 -71.4556 336° Northwest 131 151 19,000 9,273 Climbing Boston Center
03:09PM 42.9967 -71.4778 333° Northwest 131 151 19,000  Level Boston Center
03:10PM 43.0281 -71.4972 336° Northwest 131 151 19,000  Level Boston Center
03:12PM 42.9328 -71.4358 160° South  Level Estimated
03:19PM 42.9328 -71.4358 160° South  Level Estimated
03:20PM 42.9328 -71.4358 160° South  Level Estimated
03:21PM 42.9328 -71.4358 160° South  Level Estimated
03:22PM 42.9328 -71.4358 160° South  Level Estimated
03:23PM 42.9328 -71.4358 160° South  Level Estimated